Location: Devore Heights
(34.2372°N, 117.4156°W)
Time: 02:16:54
(UTC+00:00)

Altair - Pass Details

Date: 22 September 2024
Orbit: 1501 x 1682 km, 47.2° (Epoch: 09 October)

Event Time Altitude Azimuth Distance (km) Brightness Sun altitude
Exits shadow 12:47:57 - 301° (WNW) 4,721 9.6 -11.2°
Reaches altitude 10° 12:50:40 10° 306° (NW) 3,931 9.2 -10.6°
Maximum altitude 13:00:24 48° 19° (NNE) 2,099 8.4 -8.6°
Drops below altitude 10° 13:10:05 10° 92° (E) 3,922 11.4 -6.6°
Sets 13:13:25 0° 98° (E) 4,894 12.2 -6.0°
